Weather History for Christmas Island Aerodrome, Australian Islands

Change the Weather History Date:

Monday, December 31, 2012

  Actual Average Record
Temperature  
Mean Temperature 78 °F -  
Max Temperature 82 °F 80 °F - ()
Min Temperature 75 °F 71 °F - ()
Cooling Degree Days 14    
Growing Degree Days 28 (Base 50)    
Moisture  
Dew Point 75 °F    
Average Humidity 89    
Maximum Humidity 94    
Minimum Humidity 70    
Precipitation  
Precipitation 0.35 in - - ()
Sea Level Pressure  
Sea Level Pressure 29.78 in    
Wind  
Wind Speed 3 mph ()    
Max Wind Speed 7 mph    
Max Gust Speed -    
Visibility 5.8 miles    
Events Rain    
T = Trace of Precipitation, MM = Missing Value Source: Averaged Metar Reports

Daily Weather History Graph

Daily Weather History Graph

Search for Another Location

Airport:

Trip Planner

Search our weather history database for the weather conditions in past years. The results will help you decide how hot, cold, wet, or windy it might be!

Date:

Astronomy

Dec. 31, 2012 Rise Set
Actual Time 5:38 AM CXT 6:22 PM CXT
Civil Twilight 5:15 AM CXT 6:45 PM CXT
Nautical Twilight 4:48 AM CXT 7:12 PM CXT
Astronomical Twilight 4:20 AM CXT 7:39 PM CXT
Moon 8:29 PM CXT (12/31) 7:46 AM CXT (12/31)
Length of Visible Light 13h 29m
Length of Day
12h 43m
Waning Gibbous, 93% of the Moon is Illuminated
Dec 31
Waning Gibbous
Jan 5
Last Quarter
Jan 12
New
Jan 19
First Quarter
Jan 27
Full

Hourly Weather History & Observations

Time (CXT) Temp. Heat Index Dew Point Humidity Pressure Visibility Wind Dir Wind Speed Gust Speed Precip Events Conditions
12:00 AM 77 °F - 75 °F 92% 29.78 in - WSW 1.2 mph - -  
12:00 AM 77.0 °F - 75.2 °F 94% 29.80 in 6.2 mi WSW 1.2 mph - N/A   Scattered Clouds
1:00 AM 77 °F - 75 °F 93% 29.76 in - West 2.3 mph - -  
1:00 AM 77.0 °F - 75.2 °F 94% 29.80 in 6.2 mi West 2.3 mph - N/A   Scattered Clouds
2:00 AM 77.0 °F - 75.2 °F 94% 29.77 in 6.2 mi WSW 1.2 mph - N/A   Mostly Cloudy
3:00 AM 77 °F - 75 °F 91% 29.73 in - SSW 3.5 mph - -  
3:00 AM 77.0 °F - 75.2 °F 94% 29.77 in 6.2 mi SSW 3.5 mph - N/A   Unknown
4:00 AM 76 °F - 75 °F 94% 29.73 in - Calm Calm - -  
4:00 AM 77.0 °F - 75.2 °F 94% 29.77 in 6.2 mi Calm Calm - N/A   Unknown
5:00 AM 75.2 °F - 73.4 °F 94% 29.77 in 6.2 mi SW 3.5 mph - N/A   Unknown
6:00 AM 76 °F - 74 °F 94% 29.74 in - SW 2.3 mph - -  
6:00 AM 77.0 °F - 75.2 °F 94% 29.77 in 6.2 mi SW 2.3 mph - N/A Rain Light Rain
7:00 AM 78 °F - 75 °F 88% 29.76 in - South 4.6 mph - -  
7:00 AM 77.0 °F - 75.2 °F 94% 29.80 in 6.2 mi South 4.6 mph - N/A   Mostly Cloudy
8:00 AM 80.6 °F 86.2 °F 75.2 °F 84% 29.80 in 6.2 mi SSW 4.6 mph - N/A   Scattered Clouds
8:10 AM 80.6 °F 86.2 °F 75.2 °F 84% 29.80 in 6.2 mi South 5.8 mph - N/A   Mostly Cloudy
9:00 AM 82 °F - 74 °F 70% 29.78 in - SSE 6.9 mph - -   Overcast
9:00 AM 82.4 °F 88.2 °F 73.4 °F 74% 29.80 in 6.2 mi SSE 6.9 mph - N/A   Overcast
10:00 AM 80 °F - 74 °F 79% 29.77 in - South 4.6 mph - -  
10:00 AM 80.6 °F 86.2 °F 75.2 °F 84% 29.80 in 6.2 mi South 4.6 mph - N/A   Overcast
10:50 AM 78.8 °F - 75.2 °F 89% 29.80 in 3.7 mi SSW 5.8 mph - N/A Rain Light Rain Showers
11:00 AM 78.8 °F - 75.2 °F 89% 29.80 in - South 3.5 mph - N/A Rain Heavy Rain Showers
11:26 AM 78.8 °F - 77.0 °F 94% 29.80 in 3.7 mi SSE 4.6 mph - N/A Rain Heavy Rain Showers
12:00 PM 79 °F - 76 °F 87% 29.76 in - WSW 3.5 mph - -   Overcast
12:00 PM 78.8 °F - 75.2 °F 89% 29.80 in 6.2 mi WSW 3.5 mph - N/A   Overcast
12:13 PM 78.8 °F - 75.2 °F 89% 29.80 in 6.2 mi SSW 4.6 mph - N/A Rain Light Rain Showers
12:23 PM 78.8 °F - 75.2 °F 89% 29.80 in 6.2 mi SE 3.5 mph - N/A Rain Light Rain Showers
1:00 PM 80 °F - 75 °F 82% 29.75 in - SE 4.6 mph - -  
1:00 PM 80.6 °F 86.2 °F 75.2 °F 84% 29.77 in 6.2 mi SE 4.6 mph - N/A Rain Light Rain Showers
1:27 PM 78.8 °F - 75.2 °F 89% 29.77 in 3.7 mi SSW 4.6 mph - N/A Rain Heavy Rain Showers
1:30 PM 78.8 °F - 75.2 °F 89% 29.77 in 1.5 mi SSW 3.5 mph - N/A Rain Heavy Rain Showers
1:59 PM 78.8 °F - 75.2 °F 89% 29.77 in 6.2 mi SE 4.6 mph - N/A Rain Light Rain Showers
2:00 PM 78.8 °F - 75.2 °F 89% 29.77 in 6.2 mi SE 5.8 mph - N/A Rain Light Rain Showers
3:00 PM 80 °F - 76 °F 85% 29.72 in - SSW 3.5 mph - -   Overcast
3:00 PM 80.6 °F 87.1 °F 77.0 °F 89% 29.77 in 6.2 mi South 3.5 mph - N/A   Mostly Cloudy
4:00 PM 79 °F - 74 °F 79% 29.72 in - SSW 3.5 mph - -  
4:00 PM 78.8 °F - 73.4 °F 83% 29.74 in 6.2 mi SSW 3.5 mph - N/A   Overcast
5:00 PM 78.8 °F - 75.2 °F 89% 29.74 in 6.2 mi South 4.6 mph - N/A   Mostly Cloudy
6:00 PM 78 °F - 75 °F 86% 29.73 in - SSW 3.5 mph - -  
6:00 PM 78.8 °F - 75.2 °F 89% 29.77 in 6.2 mi SSW 3.5 mph - N/A   Scattered Clouds
7:00 PM 76 °F - 74 °F 92% 29.76 in - WSW 1.2 mph - -  
7:00 PM 77.0 °F - 73.4 °F 89% 29.80 in 6.2 mi WSW 1.2 mph - N/A   Unknown
8:00 PM 75.2 °F - 73.4 °F 94% 29.83 in 6.2 mi SW 3.5 mph - N/A   Unknown
9:00 PM 76 °F - 73 °F 88% 29.80 in - SW 3.5 mph - -  
9:00 PM 75.2 °F - 73.4 °F 94% 29.83 in 6.2 mi SW 3.5 mph - N/A   Unknown
10:00 PM 76 °F - 74 °F 91% 29.82 in - SW 3.5 mph - -  
10:00 PM 75.2 °F - 73.4 °F 94% 29.86 in 6.2 mi SW 3.5 mph - N/A   Scattered Clouds
11:00 PM 75.2 °F - 73.4 °F 94% 29.86 in 6.2 mi SSW 4.6 mph - N/A   Mostly Cloudy